Quillayute, WA
on Thursday, December 6, 2012

Thursday
Previous Day Next Day
Daily Summary
 ActualAverageRecord
Temperature
Mean Temperature °F 41°F  
Max Temperature 46°F 47°F 55°F (1974)
Min Temperature 38°F 35°F 20°F (1972)
Degree Days
Heating Degree Days 23 24  
Month to date heating degree days 144  
Since 1 July heating degree days 1858  
Cooling Degree Days 0 0  
Month to date cooling degree days 0  
Year to date cooling degree days 19  
Moisture
Dew Point 41°F   
Average Humidity 92    
Maximum Humidity 100    
Minimum Humidity 81    
Precipitation
Precipitation 0.62 in 0.44 in 2.47 in (1970)
Month to date precipitation 2.78  
Year to date precipitation 89.33  
Wind
Wind Speed 5 mph   
Max Wind Speed 13 mph   
Max Gust Speed 18 mph   
Visibility 4 miles   
Events Rain   

Key: T is trace of precipitation, MM is missing value
Source: NWS Daily Summary
Time(PST)TemperatureDew PointHumidity Pressure Visibility Wind DirectionWind SpeedGust SpeedPrecipitationEvents Conditions
12:00 AM 42.8°F 39.2°F 87% 30.14 in 2.0 miles Variable 4.6 mph - 0.02 in Rain Rain
12:09 AM 42.8°F 41.0°F 93% 30.15 in 6.0 miles Calm Calm - 0.03 in   Overcast
12:53 AM 41.0°F 39.9°F 96% 30.14 in 7.0 miles Calm Calm - 0.03 in   Mostly Cloudy
1:53 AM 42.1°F 41.0°F 96% 30.13 in 2.5 miles Calm Calm - 0.01 in Rain Light Rain
1:56 AM 42.8°F 41.0°F 93% 30.13 in 4.0 miles Calm Calm - 0.00 in Rain Light Rain
2:15 AM 42.8°F 41.0°F 93% 30.13 in 6.0 miles Calm Calm - 0.00 in   Overcast
2:53 AM 42.1°F 41.0°F 96% 30.13 in 5.0 miles ESE 3.5 mph - 0.02 in Rain Light Rain
3:04 AM 42.8°F 41.0°F 93% 30.12 in 5.0 miles Calm Calm - 0.00 in   Overcast
3:22 AM 42.8°F 41.0°F 93% 30.12 in 5.0 miles Calm Calm - 0.01 in Rain Light Rain
3:53 AM 42.1°F 41.0°F 96% 30.11 in 6.0 miles Calm Calm - 0.01 in   Overcast
4:02 AM 42.8°F 41.0°F 93% 30.10 in 6.0 miles SSE 3.5 mph - N/A   Overcast
4:09 AM 42.8°F 41.0°F 93% 30.10 in 6.0 miles Variable 3.5 mph - 0.00 in Rain Light Rain
4:53 AM 44.1°F 41.0°F 89% 30.09 in 6.0 miles SSW 5.8 mph - 0.00 in Rain Light Rain
5:19 AM 44.6°F 42.8°F 93% 30.08 in 2.5 miles West 9.2 mph - 0.02 in Rain Light Rain
5:30 AM 44.6°F 42.8°F 93% 30.08 in 1.8 miles West 8.1 mph - 0.05 in Rain Light Rain
5:53 AM 44.1°F 41.0°F 89% 30.07 in 2.0 miles WSW 12.7 mph 17.3 mph 0.12 in Rain Rain
6:03 AM 44.6°F 41.0°F 87% 30.07 in 4.0 miles SW 5.8 mph - 0.02 in Rain Light Rain
6:29 AM 44.6°F 42.8°F 93% 30.06 in 6.0 miles SW 4.6 mph - 0.02 in Rain Light Rain
6:53 AM 45.0°F 42.1°F 90% 30.06 in 6.0 miles SSW 8.1 mph 16.1 mph 0.02 in Rain Light Rain
7:23 AM 44.6°F 42.8°F 93% 30.05 in 4.0 miles SW 10.4 mph - 0.01 in Rain Light Rain
7:37 AM 44.6°F 42.8°F 93% 30.06 in 2.5 miles WSW 8.1 mph - 0.02 in Rain Light Rain
7:45 AM 44.6°F 41.0°F 87% 30.06 in 1.2 miles West 6.9 mph 17.3 mph 0.06 in Rain Rain
7:53 AM 43.0°F 41.0°F 93% 30.06 in 1.2 miles WSW 5.8 mph - 0.11 in Rain Rain
7:57 AM 42.8°F 41.0°F 93% 30.06 in 2.0 miles SW 5.8 mph - 0.02 in Rain Light Rain
8:05 AM 42.8°F 41.0°F 93% 30.06 in 5.0 miles Variable 6.9 mph - 0.02 in Rain Light Rain
8:21 AM 44.6°F 42.8°F 93% 30.06 in 3.0 miles SW 9.2 mph - 0.04 in Rain Light Rain
8:53 AM 44.1°F 42.1°F 93% 30.06 in 5.0 miles SW 4.6 mph - 0.06 in   Overcast
9:40 AM 44.6°F 42.8°F 93% 30.07 in 1.5 miles WNW 9.2 mph - 0.00 in Rain Light Rain
9:43 AM 44.6°F 41.0°F 87% 30.07 in 1.2 miles Variable 6.9 mph - 0.02 in Rain Rain
9:49 AM 44.6°F 41.0°F 87% 30.08 in 1.8 miles West 5.8 mph - 0.02 in Rain Light Rain
9:53 AM 44.1°F 41.0°F 89% 30.08 in 1.8 miles West 8.1 mph - 0.03 in Rain Rain
10:02 AM 44.6°F 41.0°F 87% 30.08 in 1.2 miles West 8.1 mph - 0.03 in Rain Rain
10:14 AM 44.6°F 41.0°F 87% 30.08 in 2.0 miles WSW 6.9 mph 16.1 mph 0.05 in Rain Light Rain
10:21 AM 44.6°F 41.0°F 87% 30.08 in 3.0 miles WSW 6.9 mph - 0.06 in Rain Light Rain
10:33 AM 44.6°F 42.8°F 93% 30.08 in 2.0 miles WSW 4.6 mph - 0.06 in Rain Light Rain
10:44 AM 44.6°F 42.8°F 93% 30.09 in 2.5 miles West 6.9 mph - 0.07 in Rain Light Rain
10:53 AM 44.1°F 41.0°F 89% 30.09 in 2.0 miles West 8.1 mph - 0.08 in Rain Light Rain
11:02 AM 44.6°F 41.0°F 87% 30.08 in 3.0 miles WSW 9.2 mph - 0.01 in Rain Light Rain
11:53 AM 45.0°F 42.1°F 90% 30.08 in 3.0 miles WSW 5.8 mph - 0.01 in Rain Light Rain
12:01 PM 44.6°F 42.8°F 93% 30.07 in 5.0 miles SW 5.8 mph - 0.00 in Rain Light Rain
12:09 PM 44.6°F 42.8°F 93% 30.07 in 4.0 miles SW 4.6 mph - 0.00 in Rain Light Rain
12:25 PM 44.6°F 42.8°F 93% 30.06 in 2.5 miles SW 6.9 mph - 0.01 in Rain Light Rain
12:28 PM 44.6°F 42.8°F 93% 30.06 in 1.8 miles WSW 6.9 mph - 0.01 in Rain Light Rain
12:41 PM 44.6°F 42.8°F 93% 30.06 in 3.0 miles WSW 3.5 mph - 0.03 in Rain Light Rain
12:53 PM 45.0°F 43.0°F 93% 30.06 in 5.0 miles WSW 6.9 mph - 0.03 in Rain Light Rain
1:24 PM 44.6°F 42.8°F 93% 30.06 in 5.0 miles West 6.9 mph - 0.00 in   Overcast
1:53 PM 46.0°F 42.1°F 86% 30.06 in 5.0 miles WSW 8.1 mph - 0.00 in   Overcast
2:08 PM 46.4°F 42.8°F 87% 30.06 in 4.0 miles West 10.4 mph - 0.00 in Rain Light Rain
2:38 PM 44.6°F 42.8°F 93% 30.05 in 5.0 miles West 8.1 mph 17.3 mph 0.01 in   Overcast
2:53 PM 45.0°F 42.1°F 90% 30.06 in 5.0 miles West 9.2 mph - 0.01 in   Overcast
3:53 PM 45.0°F 41.0°F 86% 30.07 in 5.0 miles West 8.1 mph - N/A   Mostly Cloudy
4:53 PM 43.0°F 39.9°F 89% 30.08 in 6.0 miles Calm Calm - N/A   Mostly Cloudy
5:53 PM 42.1°F 41.0°F 96% 30.09 in 6.0 miles Calm Calm - N/A   Overcast
6:53 PM 41.0°F 39.9°F 96% 30.08 in 5.0 miles SE 4.6 mph - N/A   Scattered Clouds
7:53 PM 39.0°F 37.9°F 96% 30.09 in 5.0 miles East 3.5 mph - N/A   Overcast
8:28 PM 41.0°F 39.2°F 93% 30.09 in 5.0 miles Calm Calm - N/A   Overcast
8:37 PM 41.0°F 39.2°F 93% 30.08 in 5.0 miles Calm Calm - N/A   Overcast
8:53 PM 41.0°F 39.9°F 96% 30.09 in 5.0 miles Calm Calm - N/A   Overcast
9:53 PM 42.1°F 39.9°F 92% 30.08 in 6.0 miles Variable 4.6 mph - N/A   Overcast
10:03 PM 42.8°F 41.0°F 93% 30.07 in 4.0 miles Variable 3.5 mph - 0.00 in Rain Light Rain
10:09 PM 42.8°F 41.0°F 93% 30.07 in 1.8 miles Variable 4.6 mph - 0.01 in Rain Rain
10:23 PM 42.8°F 41.0°F 93% 30.07 in 2.0 miles South 5.8 mph - 0.04 in Rain Light Rain
10:30 PM 42.8°F 41.0°F 93% 30.07 in 3.0 miles SSW 10.4 mph - 0.04 in Rain Light Rain
10:53 PM 43.0°F 42.1°F 97% 30.07 in 5.0 miles SSE 3.5 mph - 0.04 in   Overcast
11:17 PM 42.8°F 42.8°F 100% 30.06 in 4.0 miles South 4.6 mph - 0.00 in Rain Light Rain
11:28 PM 42.8°F 42.8°F 100% 30.06 in 5.0 miles SSW 6.9 mph - 0.00 in Rain Light Rain
11:38 PM 42.8°F 42.8°F 100% 30.06 in 2.0 miles Variable 3.5 mph - 0.02 in Rain Rain
11:53 PM 44.1°F 43.0°F 96% 30.06 in 2.0 miles South 5.8 mph - 0.06 in Rain Rain
Moon Phase
Dec. 06 Dec. 13 Dec. 20 Dec. 28 Jan. 04
Sunrise:07:53 AM (PST) Moon Rise:No Moon Rise/
Sunset:04:25 PM (PST) Moon Set:12:22 PM (PST)12/6

Copyright © 2014 The Weather Underground, Inc.